Theta_e
348 346 344 340 337 334 332 332 331 331 331 329 327 328 325 323 324 326 327 328 327 326 326 326 327 327 326 324 327 327 329 331 332 334 332 332 335 338 342 343 343 344 342
344 341 338 336 333 332 331 331 330 329 328 327 328 322 316 310 318 325 325 325 325 326 326 326 324 322 321 321 322 323 324 324 327 329 330 332 334 336 339 340 341 343 343
341 338 335 333 331 331 329 328 328 327 326 324 318 310 309 310 321 324 324 325 323 322 323 322 320 318 319 319 320 321 321 323 325 327 329 331 333 334 337 336 338 339 342
338 333 332 332 330 329 327 326 325 324 320 319 313 311 307 315 319 321 323 323 321 316 320 321 319 315 317 318 319 319 321 322 325 327 328 329 331 331 333 332 332 333 334
333 332 330 329 328 326 325 324 321 321 319 313 307 307 308 312 314 318 320 323 322 317 316 319 318 311 317 319 319 319 320 322 323 323 326 326 327 327 327 327 330 331 329
332 331 329 328 326 325 322 320 320 320 320 318 317 309 307 309 312 314 318 323 321 319 316 313 310 307 313 314 312 316 319 322 320 321 322 322 323 325 324 326 328 329 330
332 330 328 327 325 323 321 320 320 319 319 319 320 318 314 307 312 314 314 319 320 319 317 311 309 308 310 312 312 312 313 317 319 319 320 320 322 322 323 324 326 328 329
330 328 327 326 322 321 321 320 320 319 319 319 317 318 318 309 308 312 313 313 317 319 315 311 310 310 310 311 311 312 312 312 312 314 316 319 320 319 318 318 318 320 323
329 328 327 323 321 321 320 321 320 320 320 320 320 320 318 315 312 311 311 309 312 317 315 312 312 311 311 311 311 311 311 312 313 314 314 313 312 312 311 316 316 318 320
328 326 326 323 321 321 322 321 321 322 322 320 321 321 320 319 316 311 312 312 312 315 317 314 313 313 312 311 311 311 311 311 312 313 314 313 313 312 311 314 316 317 317
326 326 326 323 321 322 321 322 321 321 322 321 322 321 322 320 320 313 311 312 312 313 313 314 311 311 312 313 312 311 311 312 311 312 310 311 313 313 313 312 310 309 315
324 324 325 323 322 322 322 321 322 322 322 322 323 324 322 321 321 315 312 312 312 312 312 313 311 312 314 314 312 311 311 311 310 311 310 311 310 310 312 310 311 308 310
323 324 323 321 323 321 322 322 321 322 322 323 324 324 324 324 321 314 313 313 313 313 313 313 310 313 316 314 314 313 313 312 313 312 312 312 311 310 310 310 309 309 309
323 322 322 322 324 321 321 322 323 322 322 314 314 315 317 323 318 315 313 313 312 312 311 311 311 312 314 313 312 312 311 310 312 311 310 312 312 312 311 310 309 309 309
324 323 324 323 321 320 319 319 321 318 314 310 311 313 314 316 317 313 313 313 312 311 311 311 312 312 312 314 313 313 312 311 312 310 310 309 310 311 312 309 308 309 308
325 325 322 322 322 320 321 320 321 317 316 315 313 314 315 314 314 314 313 313 312 311 310 310 311 312 312 315 314 313 313 312 311 311 311 309 309 311 311 308 308 307 307
323 324 322 322 319 319 320 321 318 317 316 315 315 314 314 315 315 314 314 313 312 312 312 312 311 313 314 315 314 314 313 312 311 310 310 309 310 310 307 305 304 304 305
323 324 322 321 321 321 321 321 322 321 319 317 317 316 316 317 315 314 313 313 312 314 314 316 314 315 315 315 314 316 313 312 311 310 310 310 305 304 303 303 303 303 304
322 321 319 317 319 320 320 319 318 318 320 321 320 319 318 318 317 317 315 314 314 315 314 317 317 316 316 315 313 313 312 312 311 307 305 304 303 302 302 303 303 303 304
321 321 318 317 319 320 319 319 319 320 322 320 321 321 319 317 316 315 317 318 317 318 318 317 316 313 312 313 311 309 306 306 306 305 303 302 301 302 303 302 302 303 303
322 318 317 318 317 318 319 320 321 321 321 320 320 319 315 313 314 313 317 313 313 314 310 309 309 310 308 308 306 305 305 305 305 303 302 301 301 302 301 302 303 303 303
321 320 319 317 317 318 318 320 320 319 320 319 317 315 314 313 312 312 311 310 309 308 307 306 306 306 306 305 305 305 306 305 304 303 301 300 300 299 300 301 301 302 303
320 321 319 318 319 319 320 321 320 320 318 315 314 313 313 312 310 309 308 308 307 307 306 305 305 305 305 305 306 306 306 304 303 301 300 299 299 299 299 299 300 301 302
320 322 323 321 321 321 320 320 320 318 317 314 312 312 311 309 309 308 307 307 306 306 305 305 304 305 305 306 306 306 305 303 302 302 301 299 299 299 298 298 300 302 303
320 321 321 322 322 322 321 320 320 314 313 312 311 311 310 310 308 308 306 306 305 305 304 304 305 305 305 306 306 305 304 303 302 301 300 299 299 299 298 299 300 302 303
319 319 322 321 321 321 322 320 314 313 312 311 311 311 310 309 308 306 306 305 305 305 305 305 305 305 305 305 304 303 302 301 300 300 299 299 299 299 299 300 301 303 303
Wind_Speed
19 18 16 14 13 13 11 12 12 11 9 8 12 13 12 11 10 12 14 12 12 11 11 10 11 14 17 19 18 18 18 17 7 10 19 22 21 19 17 16 18 20 17
23 21 19 16 14 14 14 13 11 12 13 13 10 12 11 12 11 14 15 15 17 17 18 16 18 19 20 19 17 18 18 17 13 12 18 23 24 23 18 17 14 12 15
20 18 16 16 17 16 14 13 13 13 14 13 15 15 13 14 11 13 14 15 16 15 16 17 19 21 20 20 17 17 16 19 19 15 16 21 21 23 19 18 16 16 10
23 22 20 18 18 16 16 14 14 14 12 10 14 14 15 14 14 14 14 13 16 20 16 17 19 22 19 17 15 15 14 14 20 19 18 18 18 23 20 24 25 24 23
25 21 19 17 17 16 16 14 14 14 12 14 15 13 14 14 15 14 14 11 14 19 18 14 15 19 17 15 15 16 14 14 18 17 14 14 16 21 19 20 19 22 21
23 21 18 15 16 16 15 14 14 13 11 10 12 16 18 15 13 13 11 11 10 12 15 15 15 19 19 18 19 17 15 16 18 17 15 12 16 19 23 21 17 17 6
25 21 19 19 17 15 15 14 13 12 10 10 7 8 13 16 11 12 15 5 5 6 9 13 17 17 19 18 20 21 19 16 15 17 16 18 16 20 21 23 23 18 13
24 21 19 18 16 15 13 12 11 10 8 8 8 5 7 15 15 10 9 12 14 4 6 12 19 17 16 17 20 21 20 20 20 21 18 20 17 18 23 18 21 20 19
24 22 20 19 17 15 13 11 9 7 6 6 3 3 4 7 12 14 10 14 10 8 3 5 14 15 14 15 18 20 20 20 22 20 14 12 16 16 21 20 23 21 12
24 22 20 19 17 15 12 10 6 4 4 2 7 6 6 2 3 8 12 15 14 12 3 7 15 16 16 17 18 19 20 21 22 22 22 17 13 13 17 17 17 14 15
22 20 19 18 16 14 10 8 5 4 4 6 6 8 10 10 3 1 4 6 9 9 11 11 19 16 16 20 15 13 14 13 15 15 21 18 22 19 15 11 16 19 16
22 20 18 17 15 12 10 8 7 7 9 11 14 15 16 15 11 7 4 1 3 5 8 10 19 16 16 15 12 7 11 10 13 16 20 20 20 22 17 19 14 22 16
22 19 18 18 14 12 11 10 10 10 12 17 19 18 12 16 14 8 4 2 4 7 8 12 18 17 11 5 7 13 16 15 14 19 21 24 19 18 17 16 16 18 19
23 20 17 15 11 16 12 12 12 12 13 6 4 5 6 13 15 9 6 4 6 9 12 15 15 14 7 6 6 9 12 12 13 15 20 23 23 27 22 14 17 19 19
23 20 17 15 13 13 12 13 13 9 1 1 3 4 6 7 14 7 6 11 12 13 15 16 18 19 16 15 10 11 8 10 9 14 16 19 23 25 24 14 17 18 18
23 20 19 18 18 16 16 16 16 12 11 8 8 9 8 10 11 12 13 14 14 14 16 17 19 19 17 15 8 10 8 6 8 14 15 22 21 24 17 17 17 19 19
21 19 19 17 19 19 19 17 18 20 17 17 16 16 16 16 17 16 15 19 19 17 17 20 18 17 16 12 10 10 4 5 11 14 15 23 24 19 18 20 21 22 23
18 11 17 18 16 20 20 16 14 19 23 26 26 25 21 19 22 21 21 24 23 21 17 17 15 11 7 9 11 14 7 7 11 12 18 18 16 20 22 22 24 23 23
12 10 8 8 10 9 8 8 11 16 14 18 21 24 22 17 11 13 21 25 22 20 9 11 8 8 10 9 6 5 6 11 13 13 13 17 21 23 22 23 24 25 25
13 10 10 6 1 9 12 13 16 17 14 9 7 2 5 1 4 10 12 8 6 5 5 6 4 4 9 3 7 8 10 10 9 11 15 20 22 19 21 23 23 24 24
12 12 15 12 10 10 15 14 5 4 5 9 1 7 5 3 4 6 5 7 8 6 8 7 9 8 7 5 7 10 9 5 8 12 19 22 17 20 22 21 22 24 25
16 19 17 14 15 17 19 16 5 5 8 5 4 7 3 2 4 5 7 7 7 6 7 7 8 7 5 6 9 8 6 5 7 13 17 17 19 21 19 21 23 23 23
16 17 25 23 21 21 22 8 10 8 4 7 8 6 2 3 7 7 6 6 5 6 7 8 9 9 7 7 7 8 8 4 8 13 16 19 21 20 21 22 22 22 22
11 9 12 21 13 10 5 3 5 9 5 4 6 5 7 7 7 5 4 6 5 6 7 9 10 10 6 8 7 9 6 6 12 16 19 21 21 22 23 21 19 22 23
12 11 12 3 3 2 2 2 4 9 9 8 7 7 4 5 6 3 5 5 4 7 10 11 8 10 12 11 8 6 6 10 15 19 22 22 21 21 21 18 20 22 21
16 12 2 4 3 1 6 3 9 7 7 5 5 5 3 5 3 4 3 4 7 7 10 10 11 13 13 7 4 5 9 15 20 21 22 22 22 21 17 18 21 22 18
Wind_Direction
153 144 134 124 120 108 102 94 88 87 79 65 57 72 61 39 46 57 52 43 42 40 29 26 27 26 26 18 20 18 16 14 3 340 330 333 336 325 317 305 303 293 278
141 137 134 137 130 110 113 107 95 89 78 70 84 66 45 36 60 59 51 44 54 55 56 49 35 20 18 11 14 12 8 5 357 328 340 341 337 334 333 333 326 302 285
145 144 142 134 125 121 109 104 104 103 97 91 85 66 47 51 83 67 63 63 51 40 54 50 38 23 19 15 15 12 3 3 359 348 334 350 4 13 12 13 5 358 347
150 133 121 119 122 120 114 115 110 102 98 94 82 74 54 63 70 63 64 73 54 49 64 51 32 24 19 17 13 7 360 356 356 354 354 356 9 12 19 9 357 358 352
135 130 123 123 124 124 119 113 107 105 98 85 78 72 60 64 55 55 57 78 64 57 55 53 35 26 31 28 20 11 5 4 19 4 5 3 3 0 2 349 344 345 352
135 130 132 131 128 125 121 116 111 110 110 93 74 62 57 55 52 46 55 86 66 53 53 55 30 30 34 37 29 19 21 6 12 8 4 1 352 353 350 350 350 352 340
138 140 140 140 136 133 133 128 124 120 112 101 95 65 53 54 52 47 43 81 107 67 55 53 41 37 33 32 31 32 29 23 21 358 348 348 341 355 345 351 355 352 336
143 145 148 147 143 143 140 138 138 135 134 123 101 83 56 55 53 45 39 43 53 118 63 58 45 42 33 26 23 23 22 16 12 5 355 20 24 21 24 20 11 2 356
151 153 154 153 152 153 153 156 159 166 177 175 144 63 49 61 53 49 45 36 50 50 17 61 32 24 17 12 6 2 2 8 5 9 15 28 11 16 12 12 20 12 357
158 158 159 159 160 162 158 161 177 186 219 256 204 250 259 271 52 55 53 40 32 34 130 13 4 348 346 353 346 339 338 350 356 4 15 11 1 12 13 21 14 10 1
157 157 159 161 162 164 166 179 188 234 256 252 251 251 243 246 246 338 57 51 39 25 13 2 350 342 332 336 332 339 353 5 12 18 6 10 14 4 7 11 13 7 352
157 158 158 161 164 171 184 200 215 243 263 272 275 266 252 241 229 241 230 314 338 325 339 331 342 341 329 330 335 353 1 359 5 15 8 3 359 358 7 1 1 355 339
159 160 162 173 174 181 193 219 229 251 266 274 285 285 274 218 208 215 231 302 332 316 323 320 328 342 4 338 8 36 41 23 29 5 354 349 339 344 341 346 354 357 353
161 165 171 181 200 187 208 231 254 271 262 238 332 16 64 190 201 214 227 257 297 307 315 322 334 340 344 348 8 5 6 5 2 357 358 350 351 341 326 338 347 352 346
167 172 179 186 188 200 225 235 249 224 108 198 217 216 270 196 216 230 280 298 307 305 310 318 327 332 328 313 325 320 303 342 349 345 348 353 346 337 336 353 350 349 354
169 178 187 198 204 206 226 241 237 229 230 226 228 229 230 237 250 262 275 287 294 298 300 304 306 308 306 303 308 321 285 339 347 343 332 343 340 337 340 357 359 356 347
180 193 201 215 212 209 226 229 227 229 234 240 247 247 249 252 251 259 271 284 290 295 297 294 291 299 299 295 313 312 292 318 341 341 336 338 336 352 9 4 354 347 340
195 209 221 219 223 221 223 226 234 234 239 240 243 247 251 260 266 268 273 280 287 295 297 289 279 295 296 311 329 318 286 309 338 338 343 354 27 3 354 347 342 336 329
202 236 218 204 262 211 205 245 259 262 275 255 249 251 255 263 271 268 267 270 284 296 279 277 266 297 302 320 354 30 348 347 1 52 44 7 357 350 344 343 340 338 335
199 221 214 233 272 225 250 263 264 262 273 317 318 232 161 171 295 290 287 272 254 253 280 285 319 359 357 3 3 42 37 26 29 21 8 355 351 347 341 335 332 330 328
199 194 218 229 251 235 258 272 247 267 297 305 169 160 148 185 309 58 114 77 76 86 61 35 18 25 28 65 29 26 18 50 13 4 357 348 340 332 329 328 326 325 322
218 224 220 229 225 233 252 260 240 317 343 66 198 190 173 84 75 64 86 80 76 65 59 34 16 18 6 1 358 2 347 344 349 349 345 335 326 326 327 323 319 316 316
253 259 225 231 233 241 261 221 277 330 11 74 80 92 105 78 77 73 65 63 51 39 21 8 357 345 332 343 337 327 314 315 341 344 336 329 324 322 322 315 314 311 310
264 302 308 252 237 161 155 194 237 145 200 109 90 61 93 82 49 33 64 43 31 20 3 345 334 326 321 327 306 308 270 324 341 337 332 325 320 317 315 312 309 310 308
257 280 298 64 126 276 359 322 33 101 86 86 69 77 57 39 10 64 51 48 37 5 345 336 344 337 329 305 287 261 302 323 328 330 329 322 316 314 312 307 302 298 303
249 283 182 29 44 233 223 148 112 93 86 47 34 22 31 17 20 49 54 42 14 7 351 348 340 326 317 299 273 308 327 329 329 328 324 320 317 315 313 305 301 298 299